SCP
0 0 0 0 0 0 0 0 0 0 0 0 0 0 0 0 0 0 0 0 0 0
0 0 0 0 0 0 0 0 0 0 0 0 0 0 0 0 0 0 0 0 0 0
0 0 0 0 0 0 0 0 0 0 0 0 0 0 0 0 0 0 0 0 0 0
0 0 0 0 0 0 0 0 0 0 0 0 0 0 0 0 0 0 0 0 0 0
0 0 0 0 0 0 0 0 0 0 0 0 0 0 0 0 0 0 0 0 0 0
0 0 0 0 0 0 0 0 0 0 0 0 0 0 0 0 0 0 0 0 0 0
0 0 0 0 0 0 0 0 0 0 0 0 0 0 0 0 0 0 0 0 0 0
0 0 0 0 0 0 0 0 0 0 0 0 0 0 0 0 0 0 0 0 0 0
0 0 0 0 0 0 0 0 0 0 0 0 0 0 0 0 0 0 0 0 0 0
0 0 0 0 0 0 0 0 0 0 0 0 0 0 0 0 0 0 0 0 0 0
0 0 0 0 0 0 0 0 0 0 0 0 0 0 0 0 0 0 0 0 0 0
0 0 0 0 0 0 0 0 0 0 0 0 0 0 0 0 0 0 0 0 0 0
0 0 0 0 0 0 0 0 0 0 0 0 0 0 0 0 0 0 0 0 0 0
0 0 0 0 0 0 0 0 0 0 0 0 0 0 0 0 0 0 0 0 0 0
Wind_Speed_500mb
30 10 17 20 28 37 46 49 36 25 22 13 11 10 9 10 13 17 18 20 19 18
28 30 31 27 31 53 48 38 34 18 17 14 11 7 8 14 17 18 17 16 14 12
45 38 38 31 41 39 33 25 21 25 21 15 11 10 11 15 12 12 10 7 7 8
47 44 37 34 31 31 27 24 26 24 19 13 6 8 9 7 5 3 4 9 10 10
45 40 35 30 34 33 33 30 22 17 12 7 6 3 1 2 6 7 13 11 8 10
42 37 37 39 39 35 29 24 17 10 3 4 2 2 2 6 9 12 12 6 4 9
47 44 43 42 38 32 26 18 11 6 5 6 8 8 8 8 8 11 8 4 6 11
51 47 43 39 33 26 19 14 13 12 12 12 11 9 7 6 6 9 6 5 10 16
52 46 40 34 27 21 18 16 15 15 15 12 11 11 7 5 5 8 6 6 15 21
49 42 36 30 26 21 18 16 15 15 14 12 13 13 13 8 7 9 9 12 17 21
43 38 34 29 24 21 19 18 17 17 16 14 13 14 13 16 17 14 16 18 23 27
38 36 32 29 26 25 19 18 18 17 16 15 14 15 17 17 16 12 15 19 21 27
36 33 30 27 24 23 21 20 22 18 16 16 15 16 17 17 18 17 15 17 22 27
37 32 27 25 20 15 14 14 19 21 21 19 18 19 20 20 18 16 16 16 20 30
Wind_Direction_500mb
214 198 175 170 169 149 140 138 135 186 240 198 202 218 251 275 299 314 324 329 338 344
169 166 172 150 156 154 151 139 154 187 185 175 195 227 273 287 302 312 324 329 346 360
157 169 162 143 142 152 157 150 151 150 162 183 203 233 284 302 313 326 328 355 42 51
166 164 156 140 143 159 166 153 152 155 167 191 222 284 294 315 331 357 69 90 78 47
171 164 154 144 144 149 154 148 158 165 177 214 274 298 313 50 58 88 93 85 61 24
163 155 154 148 145 146 151 157 164 175 230 288 265 95 156 106 93 104 101 94 48 6
147 148 149 148 147 152 156 161 164 162 153 146 132 137 137 125 118 129 133 93 2 346
148 150 147 147 148 150 149 135 115 107 110 116 116 118 119 121 126 142 119 25 346 339
147 147 148 147 145 139 126 110 105 112 110 116 110 79 75 73 87 120 82 348 338 343
145 144 142 140 135 124 113 104 102 103 101 90 75 60 47 34 44 30 358 336 333 336
142 140 138 133 127 115 102 99 97 92 82 69 58 46 34 28 29 23 359 346 330 332
140 138 135 131 117 97 91 88 81 74 68 58 45 32 21 17 15 9 345 331 328 331
138 137 138 131 117 102 84 73 62 55 51 44 35 26 18 13 14 3 352 338 332 326
135 133 136 127 116 103 75 58 35 29 27 24 18 12 7 4 7 10 12 360 348 337
Wind_Speed_850mb
30 10 17 20 28 37 46 49 36 25 22 13 11 10 9 10 13 17 18 20 19 18
28 30 31 27 31 53 48 38 34 18 17 14 11 7 8 14 17 18 17 16 14 12
45 38 38 31 41 39 33 25 21 25 21 15 11 10 11 15 12 12 10 7 7 8
47 44 37 34 31 31 27 24 26 24 19 13 6 8 9 7 5 3 4 9 10 10
45 40 35 30 34 33 33 30 22 17 12 7 6 3 1 2 6 7 13 11 8 10
42 37 37 39 39 35 29 24 17 10 3 4 2 2 2 6 9 12 12 6 4 9
47 44 43 42 38 32 26 18 11 6 5 6 8 8 8 8 8 11 8 4 6 11
51 47 43 39 33 26 19 14 13 12 12 12 11 9 7 6 6 9 6 5 10 16
52 46 40 34 27 21 18 16 15 15 15 12 11 11 7 5 5 8 6 6 15 21
49 42 36 30 26 21 18 16 15 15 14 12 13 13 13 8 7 9 9 12 17 21
43 38 34 29 24 21 19 18 17 17 16 14 13 14 13 16 17 14 16 18 23 27
38 36 32 29 26 25 19 18 18 17 16 15 14 15 17 17 16 12 15 19 21 27
36 33 30 27 24 23 21 20 22 18 16 16 15 16 17 17 18 17 15 17 22 27
37 32 27 25 20 15 14 14 19 21 21 19 18 19 20 20 18 16 16 16 20 30
Wind_Direction_850mb
214 198 175 170 169 149 140 138 135 186 240 198 202 218 251 275 299 314 324 329 338 344
169 166 172 150 156 154 151 139 154 187 185 175 195 227 273 287 302 312 324 329 346 360
157 169 162 143 142 152 157 150 151 150 162 183 203 233 284 302 313 326 328 355 42 51
166 164 156 140 143 159 166 153 152 155 167 191 222 284 294 315 331 357 69 90 78 47
171 164 154 144 144 149 154 148 158 165 177 214 274 298 313 50 58 88 93 85 61 24
163 155 154 148 145 146 151 157 164 175 230 288 265 95 156 106 93 104 101 94 48 6
147 148 149 148 147 152 156 161 164 162 153 146 132 137 137 125 118 129 133 93 2 346
148 150 147 147 148 150 149 135 115 107 110 116 116 118 119 121 126 142 119 25 346 339
147 147 148 147 145 139 126 110 105 112 110 116 110 79 75 73 87 120 82 348 338 343
145 144 142 140 135 124 113 104 102 103 101 90 75 60 47 34 44 30 358 336 333 336
142 140 138 133 127 115 102 99 97 92 82 69 58 46 34 28 29 23 359 346 330 332
140 138 135 131 117 97 91 88 81 74 68 58 45 32 21 17 15 9 345 331 328 331
138 137 138 131 117 102 84 73 62 55 51 44 35 26 18 13 14 3 352 338 332 326
135 133 136 127 116 103 75 58 35 29 27 24 18 12 7 4 7 10 12 360 348 337